User: anonymous   Login
Location: Bittkow
(50.3000°N, 19.0000°E)
Time: 16:10:24
(UTC+00:00)
Language:

Cosmos 858 Rocket - Orbit

View from above orbital plane
View from above orbital plane
View from above satellite
View from above satellite

Ground track
Ground track

The orbit data is extracted from the following two-line orbital elements,

1  9444U 76098B   20333.87453044  .00000159  00000-0  61382-4 0  9996
2  9444  74.0493 137.9296 0013942 325.1404  34.8835 14.37934820750133
Epoch (UTC): 28 November 2020 20:59:19
Eccentricity: 0.0013942
inclination: 74.0493°
perigee height: 755 km
apogee height: 775 km
right ascension of ascending node: 137.9296°
argument of perigee: 325.1404°
revolutions per day: 14.37934820
mean anomaly at epoch: 34.8835°
orbit number at epoch: 75013

The dashed part of the orbit path shows where the satellite is in the earth's shadow,  

DLR